Torna al catalogo

YUNYAO-1 39

AttivoMeteoSSO
NORAD 62731·PAYLOAD·🇨🇳 China
Questo nome del satellite non è ancora stato confermato da fonti ufficiali.

Lanciato Jan 20, 2025 da Jiuquan Satellite Launch Center

Loading…

Prossimi Passaggi (prossime 24 ore)

TLE

AggiornatoSource: Space-Track

Epoca: Sep 14, 2026, 21:30 UTC

1 62731U 25013C   26257.89634218  .00002985  00000-0  17842-3 0  9992
2 62731  97.6596  67.0961 0015348  67.7645 292.5211 15.11769869 90888

Traccia YUNYAO-1 39 in tempo reale con AllMySat

Download on the App Store